Location: Praha
(50.0830°N, 14.4670°E)
Time: 14:23:53
(UTC+02:00)

ISS - Pass Details

Date: 07 May 2019
Orbit: 408 x 410 km, 51.6° (Epoch: 18 April)

Event Time Altitude Azimuth Distance (km) Brightness Sun altitude
Exits shadow 04:14:25 15° 249° (WSW) 1,208 -2.0 -10.6°
Maximum altitude 04:17:04 84° 165° (SSE) 417 -3.8 -10.3°
Drops below altitude 10° 04:20:23 10° 75° (ENE) 1,476 0.1 -9.9°
Sets 04:22:29 0° 74° (ENE) 2,339 1.4 -9.6°
